Bowling Green, KY

8:51 AM CDT on May 25, 2017 (GMT -0500)
Bowling Green-Warren County Regional

Weather History for KBWG - March, 2013

Change the Weather History Date:

Friday, March 15, 2013

  Actual Average Record
Temperature  
Mean Temperature 51 °F 48 °F  
Max Temperature 73 °F 60 °F 85 °F (1921)
Min Temperature 28 °F 37 °F 16 °F (1993)
Degree Days  
Heating Degree Days 14 17  
Month to date heating degree days 350 288  
Since 1 July heating degree days 3245 3486  
Cooling Degree Days 0 0  
Month to date cooling degree days 0 0  
Year to date cooling degree days 0 0  
Moisture  
Dew Point 36 °F    
Average Humidity 65    
Maximum Humidity 92    
Minimum Humidity 37    
Precipitation  
Precipitation 0.00 in 0.14 in 2.25 in (1922)
Month to date precipitation 2.09 2.04  
Year to date precipitation 9.78 9.61  
Snow  
Snow 0.00 in 0.00 in 1.50 in (1937)
Month to date snowfall 1.5 0.5  
Since 1 July snowfall 2.8 8.3  
Snow Depth 0.00 in    
Sea Level Pressure  
Sea Level Pressure 30.01 in    
Wind  
Wind Speed 6 mph (SW)    
Max Wind Speed 18 mph    
Max Gust Speed 24 mph    
Visibility 8 miles    
Events Fog    
T = Trace of Precipitation, MM = Missing Value Source: NWS Daily Summary

Daily Weather History Graph

Daily Weather History Graph

Search for Another Location

Airport or City:

Trip Planner

Search our weather history database for the weather conditions in past years. The results will help you decide how hot, cold, wet, or windy it might be!

Date:

Astronomy

Mar. 15, 2013 Rise Set
Actual Time 6:56 AM CDT 6:53 PM CDT
Civil Twilight 6:30 AM CDT 7:19 PM CDT
Nautical Twilight 6:00 AM CDT 7:49 PM CDT
Astronomical Twilight 5:29 AM CDT 8:19 PM CDT
Moon 8:52 AM CDT (3/15) 10:59 PM CDT (3/15)
Length of Visible Light 12h 48m
Length of Day
11h 57m
Waxing Crescent, 15% of the Moon is Illuminated
Mar 15
Waxing Crescent
Mar 19
First Quarter
Mar 27
Full
Apr 2
Last Quarter
Apr 10
New

Hourly Weather History & Observations

Time (CDT) Temp. Windchill Dew Point Humidity Pressure Visibility Wind Dir Wind Speed Gust Speed Precip Events Conditions
12:53 AM 34.0 °F 31.0 °F 30.0 °F 85% 30.19 in 10.0 mi ESE 3.5 mph - N/A   Clear
1:53 AM 33.1 °F - 30.0 °F 89% 30.19 in 8.0 mi Calm Calm - N/A   Clear
2:53 AM 30.9 °F - 28.9 °F 92% 30.15 in 8.0 mi Calm Calm - N/A   Clear
4:53 AM 30.9 °F - 28.9 °F 92% 30.10 in 6.0 mi Calm Calm - N/A   Clear
5:16 AM 30.2 °F - 28.4 °F 93% 30.09 in 2.5 mi Calm Calm - N/A   Clear
5:24 AM 30.2 °F - 28.4 °F 93% 30.09 in 7.0 mi Calm Calm - N/A   Clear
5:53 AM 30.0 °F - 28.0 °F 92% 30.09 in 5.0 mi Calm Calm - N/A   Clear
6:23 AM 28.4 °F - 28.4 °F 100% 30.07 in 1.8 mi Calm Calm - N/A   Clear
6:33 AM 30.2 °F - 28.4 °F 93% 30.07 in 3.0 mi Calm Calm - N/A   Clear
6:53 AM 30.9 °F - 28.9 °F 92% 30.07 in 7.0 mi Calm Calm - N/A   Clear
7:00 AM 28.4 °F - 28.4 °F 100% 30.06 in 1.2 mi Calm Calm - N/A   Clear
7:03 AM 28.4 °F - 26.6 °F 93% 30.06 in 0.5 mi Calm Calm - N/A Fog Light Freezing Fog
7:15 AM 30.2 °F - 28.4 °F 93% 30.05 in 1.0 mi Calm Calm - N/A   Clear
7:19 AM 30.2 °F - 28.4 °F 93% 30.06 in 2.5 mi Calm Calm - N/A   Clear
7:26 AM 30.2 °F - 28.4 °F 93% 30.06 in 6.0 mi Calm Calm - N/A   Clear
7:53 AM 32.0 °F - 30.0 °F 92% 30.07 in 9.0 mi Calm Calm - N/A   Clear
8:53 AM 45.0 °F - 35.1 °F 68% 30.06 in 10.0 mi Calm Calm - N/A   Clear
9:53 AM 52.0 °F - 37.9 °F 59% 30.06 in 10.0 mi WSW 9.2 mph - N/A   Clear
10:53 AM 57.0 °F - 39.0 °F 51% 30.04 in 10.0 mi SW 9.2 mph - N/A   Clear
11:53 AM 61.0 °F - 39.9 °F 46% 30.01 in 10.0 mi SSW 10.4 mph - N/A   Clear
12:53 PM 66.0 °F - 42.1 °F 42% 29.99 in 10.0 mi SW 9.2 mph - N/A   Clear
1:53 PM 69.1 °F - 42.1 °F 38% 29.96 in 10.0 mi SW 12.7 mph 20.7 mph N/A   Clear
2:53 PM 71.1 °F - 44.1 °F 38% 29.93 in 10.0 mi WSW 13.8 mph 24.2 mph N/A   Clear
3:53 PM 72.0 °F - 44.1 °F 37% 29.91 in 10.0 mi SW 16.1 mph 19.6 mph N/A   Clear
4:53 PM 72.0 °F - 44.1 °F 37% 29.89 in 10.0 mi SW 12.7 mph - N/A   Clear
5:53 PM 70.0 °F - 44.1 °F 39% 29.88 in 10.0 mi SW 9.2 mph - N/A   Clear
6:53 PM 64.9 °F - 45.0 °F 48% 29.87 in 10.0 mi Calm Calm - N/A   Clear
7:53 PM 60.1 °F - 45.0 °F 57% 29.86 in 10.0 mi South 3.5 mph - N/A   Clear
8:53 PM 64.9 °F - 45.0 °F 48% 29.83 in 10.0 mi SSW 9.2 mph - N/A   Mostly Cloudy
9:53 PM 66.0 °F - 44.1 °F 45% 29.82 in 10.0 mi SSW 9.2 mph - N/A   Mostly Cloudy
10:53 PM 62.1 °F - 45.0 °F 53% 29.84 in 10.0 mi NNE 3.5 mph - N/A   Overcast
11:53 PM 62.1 °F - 44.1 °F 52% 29.81 in 10.0 mi SSW 9.2 mph - N/A   Clear